Temp
25 26 25 24 22 21 20 20 19 19 20 20 19 20 21 19 19 19 19 19 19 18 18 19 19 19 19 19 19 18 18 18
25 25 25 23 21 20 20 19 20 20 19 19 19 20 20 20 19 19 19 19 19 18 18 19 19 19 18 18 18 18 18 18
25 25 24 22 21 20 19 19 19 19 19 19 19 19 20 19 19 19 19 19 19 19 19 19 19 19 18 19 18 18 18 17
24 24 23 22 21 21 20 19 19 19 19 18 18 19 19 19 19 18 18 18 18 19 19 19 19 19 19 18 18 17 17 17
23 23 22 21 21 21 20 19 19 18 19 19 18 18 18 19 18 18 18 18 18 18 19 19 19 19 19 17 17 17 17 17
24 23 22 21 20 20 20 20 19 18 18 19 18 18 18 18 18 18 18 18 18 18 19 18 18 18 19 18 17 17 17 17
24 23 22 22 21 20 20 19 19 19 18 19 19 18 18 18 18 18 18 18 18 18 18 18 18 18 18 18 18 17 17 16
24 24 23 22 21 21 20 20 20 20 20 19 19 18 18 18 18 17 18 18 18 18 18 18 17 18 18 18 18 17 17 16
24 24 23 23 22 21 21 20 21 20 20 20 19 19 18 18 18 17 18 18 18 18 18 18 18 17 18 18 18 18 17 16
25 24 24 23 22 21 21 21 20 21 20 20 19 19 19 18 18 18 18 17 18 17 17 17 17 16 17 19 17 17 17 16
25 24 23 23 22 22 21 21 20 20 20 19 19 19 18 18 18 18 18 17 17 17 17 17 16 16 16 17 17 17 17 16
26 24 22 22 22 21 21 20 20 20 20 20 18 18 18 18 18 17 17 17 17 16 17 17 17 16 15 15 17 17 17 16
24 23 22 21 19 19 19 19 20 19 19 19 18 18 17 17 17 17 17 17 16 16 16 16 15 16 14 14 15 17 16 16
24 23 22 21 20 20 19 19 19 19 19 19 19 18 18 17 17 16 16 15 15 15 15 14 14 15 14 14 14 16 17 16
26 24 23 22 21 20 20 19 18 18 19 19 18 18 17 17 16 16 16 15 15 15 15 14 14 14 15 15 13 14 16 16
27 26 24 22 21 20 20 19 17 17 17 18 18 17 17 17 17 16 16 15 15 15 15 14 14 14 14 15 16 17 16 15
27 26 24 22 22 21 20 18 18 18 18 18 18 17 16 16 16 16 16 15 15 14 14 14 14 14 14 14 15 16 17 16
25 25 24 23 22 20 19 19 19 18 17 17 17 17 16 16 16 16 16 15 15 14 14 14 14 14 14 14 14 15 16 16
21 20 20 20 21 19 19 20 19 18 18 17 16 15 15 17 16 15 15 14 14 14 14 14 14 14 14 13 14 14 16 16
19 19 17 18 18 18 19 19 19 19 18 17 16 16 16 17 16 15 15 14 14 14 14 14 14 14 13 14 14 14 16 16
Height
747 751 755 758 761 763 766 766 768 771 774 779 783 786 789 791 795 800 803 804 808 811 816 820 821 823 823 825 826 828 831 833
745 748 752 755 759 763 766 768 768 770 773 778 782 786 788 792 796 800 804 806 809 811 816 819 821 824 826 827 828 829 830 834
742 746 748 752 757 760 764 768 769 770 773 777 781 784 787 791 796 799 803 807 808 810 814 818 822 824 826 828 830 830 831 834
739 743 746 749 754 757 761 764 767 769 771 774 778 783 786 789 795 799 803 806 809 811 813 817 820 823 824 828 829 831 832 836
735 740 744 747 749 753 757 761 764 768 771 773 776 781 785 788 793 797 800 803 808 810 813 815 818 820 823 827 829 830 832 837
730 734 739 743 747 749 752 756 760 764 768 771 774 777 782 785 790 794 797 800 804 807 811 814 817 819 823 825 828 830 832 837
722 728 732 738 743 747 750 752 756 761 765 769 772 774 778 781 787 792 795 797 801 805 808 812 815 817 821 823 827 830 833 836
718 722 726 731 736 742 746 750 752 756 761 764 769 772 776 778 783 788 792 794 798 803 807 809 813 815 818 822 825 829 831 834
713 716 722 726 730 737 742 746 750 753 756 761 766 769 772 774 779 784 788 793 796 801 805 808 811 815 818 821 824 826 829 832
705 710 714 719 723 730 737 743 746 750 752 756 761 766 770 771 775 779 784 790 793 797 801 804 807 812 817 818 821 823 826 830
696 702 706 712 718 725 730 738 743 747 750 753 757 763 767 769 771 776 780 785 789 794 798 801 805 810 815 818 820 821 824 828
688 694 700 706 713 720 728 733 738 743 747 751 754 759 763 767 769 773 776 780 785 790 795 799 802 807 812 815 819 819 822 826
679 687 695 700 708 715 723 726 733 737 741 747 751 754 759 762 766 769 772 775 779 785 791 795 801 805 812 814 819 818 819 823
673 678 685 693 700 707 715 720 726 733 737 742 747 751 755 759 762 765 768 772 775 780 785 792 797 800 806 812 818 819 818 820
667 673 679 688 696 705 712 719 725 729 732 738 742 747 751 755 758 761 765 768 770 774 779 784 790 797 799 802 812 814 814 819
664 669 676 683 690 697 702 708 717 722 727 732 738 744 748 751 755 758 761 764 767 769 774 779 784 789 795 797 799 802 804 814
660 665 671 677 685 690 696 703 711 717 722 728 734 739 744 747 751 754 757 760 763 766 769 774 778 781 786 790 795 798 800 803
659 665 668 673 679 685 691 698 705 712 718 723 729 734 739 743 748 750 753 756 759 762 766 769 772 776 779 786 788 792 794 798
663 668 671 674 678 682 688 694 700 707 712 718 724 729 734 737 743 746 748 752 755 758 762 765 767 770 774 778 782 786 789 792
663 668 676 678 680 682 687 693 698 703 707 711 716 722 728 732 738 741 745 748 751 754 756 758 762 765 768 773 777 782 785 787
Wind_Speed
19 17 15 13 12 14 16 16 18 19 17 16 17 16 13 19 21 23 14 23 21 15 15 16 18 24 26 21 18 24 23 22
18 20 18 17 16 16 16 16 16 19 18 18 18 19 15 17 19 21 20 18 17 16 16 15 18 21 23 18 22 22 22 24
17 21 21 18 18 18 17 16 16 18 19 21 20 22 17 15 20 20 22 18 15 15 16 16 17 20 22 19 20 21 23 24
20 21 22 20 19 20 20 20 19 19 21 24 23 23 17 17 20 19 20 19 18 17 18 19 21 21 22 19 19 23 22 21
23 22 22 23 21 20 23 22 21 20 21 24 24 24 19 23 14 18 22 21 21 19 18 20 22 23 23 21 22 21 23 22
28 26 25 24 23 23 23 24 24 23 22 23 25 26 22 25 19 24 25 25 23 21 21 21 22 22 22 24 21 21 23 25
37 33 31 29 27 25 23 25 24 25 25 23 26 28 27 25 25 27 27 25 25 22 22 22 23 22 22 24 22 22 22 25
41 38 36 33 32 30 26 25 25 25 27 28 26 29 28 26 28 28 30 29 26 21 24 24 24 23 23 24 22 22 25 26
43 43 39 37 36 31 28 27 27 28 29 31 29 29 28 27 30 30 31 32 28 22 23 24 24 24 25 25 21 22 31 29
46 42 45 42 40 34 29 26 28 29 25 29 31 30 29 28 32 32 32 29 30 27 27 27 24 21 21 25 20 31 31 29
44 44 44 45 41 38 31 30 29 28 28 24 27 29 30 31 33 32 30 29 29 31 29 29 27 24 24 24 26 33 29 28
45 47 43 45 41 37 36 31 25 27 30 31 25 29 30 32 32 30 31 32 30 33 32 30 29 29 26 15 15 31 29 27
42 40 40 39 35 32 31 34 34 26 28 29 32 28 31 31 31 29 33 35 35 36 34 31 25 30 22 13 8 27 29 29
37 42 44 40 40 35 27 30 33 33 28 27 26 28 29 31 31 32 35 33 33 36 34 25 20 33 18 14 3 6 22 27
33 38 44 39 33 30 21 25 24 28 29 27 27 28 28 29 30 32 35 35 35 37 37 32 23 29 24 12 4 4 9 19
34 35 39 39 39 34 35 29 20 20 23 26 28 27 27 29 29 30 35 35 32 36 39 35 29 28 27 27 18 14 10 5
35 34 35 37 39 38 37 27 23 21 23 26 27 29 30 24 27 29 32 34 32 35 36 34 34 31 32 29 25 18 27 12
31 29 26 36 41 37 35 30 26 22 24 25 26 27 29 28 28 31 31 34 33 34 36 37 37 31 30 27 26 17 20 16
19 17 12 27 34 34 35 34 28 29 29 30 30 27 26 28 29 33 31 32 34 35 33 34 37 36 39 31 34 24 26 23
15 10 12 8 21 29 31 30 29 30 30 29 31 31 29 25 27 29 31 34 32 33 35 34 38 39 41 35 32 32 27 29
Wind_Direction
173 176 175 170 168 159 156 156 155 161 165 169 168 170 165 164 181 185 171 157 169 178 187 177 172 162 156 153 142 149 147 140
179 183 182 176 170 168 164 167 162 162 167 168 170 170 149 167 176 179 176 179 177 179 184 186 182 169 166 152 146 150 148 145
189 190 187 183 178 175 171 172 172 170 167 170 174 176 165 176 182 177 180 193 181 185 183 183 186 175 171 161 152 151 147 148
195 196 192 187 183 184 178 178 178 180 175 174 180 183 190 179 184 186 188 183 190 193 181 182 183 181 181 157 155 154 157 156
194 198 197 195 191 185 188 183 182 185 185 183 180 185 192 176 186 193 182 182 193 187 186 188 190 186 184 155 163 165 165 167
199 203 200 200 194 196 191 188 188 187 190 189 185 185 189 179 192 190 184 183 187 189 190 188 192 191 191 174 170 173 168 168
197 199 200 199 196 201 195 191 189 189 195 192 190 186 184 186 192 193 188 187 190 193 194 189 188 188 189 188 182 176 173 170
195 198 201 198 199 203 199 196 192 194 194 197 195 189 191 190 189 189 190 191 193 200 197 192 193 192 191 198 189 178 182 174
193 196 200 200 202 203 200 203 195 197 200 198 197 197 198 192 189 188 194 194 197 197 196 191 192 200 192 198 187 194 180 174
198 194 198 202 202 202 200 201 196 196 190 193 200 203 200 191 188 191 193 193 199 194 189 188 190 197 206 196 176 176 173 174
195 194 192 198 201 200 194 196 200 201 194 185 196 202 202 191 189 192 195 198 199 193 188 187 184 189 191 204 165 169 167 170
198 193 190 193 198 197 197 194 193 209 207 208 200 205 205 202 197 198 200 198 198 193 188 189 186 183 187 212 179 167 167 171
188 183 185 180 181 178 189 199 205 204 205 202 203 208 209 205 203 200 198 198 198 196 194 191 190 187 184 199 217 173 168 176
187 181 180 181 184 188 189 188 198 202 204 211 208 207 209 207 205 199 198 193 197 197 193 178 180 183 178 156 167 182 189 178
182 175 180 183 179 179 174 180 183 191 200 210 204 207 212 213 210 205 202 200 194 197 193 183 178 187 186 166 151 194 154 183
175 179 183 185 183 173 176 177 176 197 197 206 213 210 213 214 213 210 209 204 194 195 198 193 183 186 194 196 195 189 170 161
181 177 181 183 183 184 181 177 184 190 195 211 220 215 214 212 215 213 212 205 200 193 195 193 193 187 192 194 211 205 188 171
177 178 182 183 188 185 181 181 186 181 183 190 198 208 211 214 218 213 213 209 203 199 203 202 198 195 191 194 194 192 186 174
107 95 146 177 186 185 186 191 193 196 198 200 201 201 207 215 217 217 217 212 212 212 205 204 204 197 195 200 197 204 192 183
59 50 67 188 185 190 197 202 204 205 203 198 198 199 202 215 219 219 220 220 215 210 207 206 210 212 201 199 196 202 204 191